Regional Weather Roundup
Issued by NWS Boston, MA

Home | Current Version | Previous Version | Text Only | Print | Product List | Glossary On
Versions: 1 2 3 4 5 6 7 8 9 10 11 12 13 14 15 16 17 18 19 20 21 22 23 24 25 26 27 28 29 30 31 32 33 34 35 36 37 38 39 40 41 42 43 44 45 46 47 48 49 50
000
ASUS41 KBOX 250410
RWRBOX

REGIONAL WEATHER ROUNDUP
NATIONAL WEATHER SERVICE TAUNTON MA
1200 AM EDT MON MAY 25 2015

NOTE:  "FAIR" INDICATES FEW OR NO CLOUDS BELOW 12,000 FEET WITH NO
SIGNIFICANT WEATHER AND/OR OBSTRUCTIONS TO VISIBILITY.  THE FOLLOWING
OBSERVATION LOCATIONS DO NOT REPORT PRESENT WEATHER...PROVINCETOWN...
SMITHFIELD...BLOCK ISLAND...KEENE...AND OXFORD.

MAZALL-250500-
EASTERN MASSACHUSETTS

CITY           SKY/WX    TMP DP  RH WIND       PRES   REMARKS
BOSTON         CLOUDY    66  48  52 SW14      30.22S
BEVERLY        CLOUDY    66  46  48 SW8       30.21R
LAWRENCE       CLOUDY    66  47  50 SW6       30.23R
BEDFORD        CLOUDY    64  47  53 SW10      30.21S
BLUE HILL        N/A     62  49  62 SW14G21   30.23S
NORWOOD        CLOUDY    64  49  57 SW5       30.24R
MARSHFIELD     CLOUDY    63  50  63 SW7       30.25S
PLYMOUTH       CLOUDY    58  49  72 S5        30.26S
TAUNTON        MOCLDY    60  49  66 SW6       30.25S
NEW BEDFORD    MOCLDY    59  46  62 SW9       30.26S
$$

MAZALL-250500-
CAPE COD AND THE ISLANDS

CITY           SKY/WX    TMP DP  RH WIND       PRES   REMARKS
FALMOUTH       CLOUDY    55  50  82 SW10      30.28S
HYANNIS        CLOUDY    58  50  75 SW14      30.26R
CHATHAM        CLOUDY    58  50  75 SW14G24   30.28S
PROVINCETOWN   CLOUDY    55  48  76 SW10      30.25R
NANTUCKET      CLOUDY    56  51  84 SW15      30.30S
MARTHAS VNYRD  CLOUDY    58  51  78 SW13      30.29S
$$

MAZALL-250500-
CENTRAL AND WESTERN MASSACHUSETTS

CITY           SKY/WX    TMP DP  RH WIND       PRES   REMARKS
WORCESTER      MOCLDY    62  47  57 W15       30.25S
FITCHBURG      CLOUDY    69  45  41 W5        30.22S
ORANGE         CLOUDY    63  49  60 S3        30.24R
SPRINGFIELD    MOCLDY    60  50  69 S8        30.23S
WESTFIELD      NOT AVBL
NORTH ADAMS    MOCLDY    51  45  79 CALM      30.24S
PITTSFIELD     PTCLDY    56  41  57 CALM      30.24S
$$

RIZALL-250500-
RHODE ISLAND

CITY           SKY/WX    TMP DP  RH WIND       PRES   REMARKS
PROVIDENCE     MOCLDY    61  47  59 SW12      30.26S
NEWPORT        PTCLDY    57  47  69 VRB3      30.27S
BLOCK ISLAND   MOCLDY    54  48  82 W14       30.29S
SMITHFIELD     MOCLDY    59  45  58 SW3       30.25F
WESTERLY       NOT AVBL
$$

CTZALL-250500-
CONNECTICUT

CITY           SKY/WX    TMP DP  RH WIND       PRES   REMARKS
BRADLEY INTL   MOCLDY    61  50  67 S9        30.24S
HARTFORD       MOCLDY    60  49  66 S7        30.25F
BRIDGEPORT     CLOUDY    61  52  72 SW6       30.26F
DANBURY        CLOUDY    61  49  64 CALM      30.27S
GROTON         MOCLDY    57  48  72 W6        30.28S
NEW HAVEN      CLOUDY    58  50  75 S5        30.27F
CHESTER        FAIR      57  48  72 SW8       30.28S
MERIDEN        MOCLDY    58  50  75 CALM      30.26F
WILLIMANTIC    MOCLDY    59  49  69 CALM      30.27S
OXFORD         CLOUDY    57  48  72 CALM      30.29S
$$

MEZ002-015-021-024-NHZ003-005-008-011-012-014-VTZ005-008-250500-
NORTHERN NEW ENGLAND

CITY           SKY/WX    TMP DP  RH WIND       PRES   REMARKS
PORTLAND ME    CLOUDY    66  42  41 SW3       30.15R
BANGOR ME      PTCLDY    56  52  86 S3        30.10S
CONCORD NH     CLOUDY    63  40  42 SE7       30.20R
MANCHESTER NH  CLOUDY    67  43  41 S5        30.19R
NASHUA NH      CLOUDY    67  45  45 CALM      30.21S
PORTSMOUTH NH  CLOUDY    68  43  40 SW8       30.17R
JAFFREY NH     CLOUDY    62  48  60 S5        30.24S
KEENE NH       CLOUDY   N/A N/A N/A S5        30.23S
BURLINGTON VT  CLOUDY    67  36  31 S6        30.13R
MT. WASHINGTON MOCLDY    43  37  81 W48         N/A  WCI  30
$$

NYZ052-076-250500-
EASTERN NEW YORK

CITY           SKY/WX    TMP DP  RH WIND       PRES   REMARKS
ALBANY         MOCLDY    60  44  55 CALM      30.20S
NEW YORK CITY  CLOUDY    68  50  52 S7        30.25F
$$

ANZALL-250500-
MARINE OBSERVATIONS

STATION/POSITION TIME  TEMP    WIND        PRES    VSBY  WAVE
                       AIR SEA DIR/SP/G                  HT/PER
                 (UTC) (F)     (DEG/KT/KT) (MB)    (MI)  (FT/S)
BOSTON BUOY      0350   58 53  230/ 10/ 10   N/A           1/ 3
BUZZARDS BAY     0300          230/ 18/ 19   N/A
NANTUCKET SOUND  0350   58 56  240/ 17/ 21   N/A           2/ 3
MASS BAY-STELLWA 0304   57 52  210/ 10/ 12   N/A    1 7/8  3/ 5
ISLE OF SHOALS   0300   69     230/ 25/ 25   N/A
S OF BLOCK IS    0308      53                N/A           4/ 5
$$

......................KEY.........................
  SKY/WX - SKY CONDITION/PRESENT WEATHER
  TMP    - TEMPERATURE IN FAHRENHEIT
  DWPT   - DEWPOINT IN FAHRENHEIT
  RH     - RELATIVE HUMIDITY IN PERCENT
  WIND   - DIRECTION AND SPEED IN MPH
  PRES   - MEAN SEA LEVEL PRESSURE IN INCHES OF HG
  WCI    - WIND CHILL INDEX
  VSB    - VISIBILITY IN MILES
  HX     - HEAT INDEX
  TC     - TEMPERATURE IN CELSIUS
  VRB    - VARIABLE WIND DIRECTION
  N/A    - NOT AVAILABLE



USA.gov is the U.S. government's official web portal to all federal, state and local government web resources and services.